Tracking 35331 objects as of 16-Sep-2026
HD Live streaming from Space Station
objects crossing your sky now

STARLINK-37672

Track STARLINK-37672 now!
10-day predictions
STARLINK-37672 is classified as:


NORAD ID: 100038
Int'l Code: 2026-161L
Launch date: July 14, 2026
Source: United States (US)
Launch site: AIR FORCE EASTERN TEST RANGE (AFETR)
Your satellite tracking list
Your tracking list is empty




NASA's NSSDC Master Catalog

Two Line Element Set (TLE):
1 A0038U 26161L   26258.04889224  .00037650  00000-0  11186-2 0  9997
2 A0038  53.1604  23.1833 0000529  74.3973 285.7088 15.34436799  9773
Source of the keplerian elements: AFSPC